Flag for South Korea Weather past 2 weeks in Daegu, South Korea

Now
82 °F

Partly sunny.


Feels Like: 82 °F
Forecast: 65 / 75 °F
Wind: 9 mph from East

Location: Taegu Ab

Current Time: Sep 23, 2014 at 3:21:42 PM

Latest Report: Sep 23, 2014 at 2:00 PM


Visibility: N/A

Pressure: 30.01 "Hg

Humidity: 45%

Dew point: 59 °F

Location of DaeguLocation

Historic Weather in Daegu — Graph

°F

Daegu temperature yesterday

Maximum temperature yesterday: 84 °F (at 2:00 PM)
Minimum temperature yesterday: 57 °F (at 5:00 AM)
Average temperature yesterday: 69 °F

Past Weeks' High & Low Weather Summary

 TemperatureHumidityPressure
High91 °F (Sep 8, 3:00 PM)94% (Sep 9, 6:00 AM)30.13 "Hg (Sep 9, 6:00 AM)
Low54 °F (Sep 20, 6:00 AM)30% (Sep 20, 5:00 PM)29.62 "Hg (Sep 8, 4:00 PM)
Average71 °F69%29.94 "Hg
* Reported Sep 8 2:00 PM — Sep 23 2:00 PM, Daegu, Weather by CustomWeather, © 2014

Note: Actual official high and low records may vary slightly from our data, if they occured in-between our weather recording intervals... More about our weather records

Advertising

Daegu weather history for previous 24 hours

 ConditionsComfort  
Time TempWeatherWind HumidityBarometerVisibility
2:00 PM
Sep 23
82 °FPartly sunny.9 mph45%30.01 "HgN/A
1:00 PM82 °FPartly sunny.10 mph45%30.04 "HgN/A
12:00 PM79 °FPartly sunny.12 mph54%30.07 "HgN/A
11:00 AM79 °FScattered clouds.12 mph54%30.07 "HgN/A
10:00 AM73 °FScattered clouds.2 mph65%30.09 "HgN/A
9:00 AM66 °FPassing clouds.1 mph78%30.12 "HgN/A
8:00 AM61 °FPassing clouds.1 mph94%30.12 "HgN/A
7:00 AM57 °FPassing clouds.1 mph94%30.09 "HgN/A
6:00 AM57 °FPassing clouds.3 mph94%30.09 "HgN/A
5:00 AM59 °FFog.1 mph88%30.11 "Hg6 mi
4:00 AM59 °FPassing clouds.5 mph94%30.13 "HgN/A
3:00 AM59 °FPassing clouds.2 mph88%30.13 "HgN/A
2:00 AM61 °FPassing clouds.2 mph88%30.12 "HgN/A
1:00 AM63 °FPassing clouds.2 mph88%30.11 "HgN/A
12:00 AM66 °FPassing clouds.5 mph78%30.11 "HgN/A
11:00 PM
Sep 22
68 °FPassing clouds.6 mph73%30.10 "HgN/A
10:00 PM68 °FClear.8 mph73%30.09 "Hg10 mi
9:00 PM70 °FClear.7 mph69%30.09 "Hg10 mi
8:00 PM70 °FClear.8 mph69%30.09 "Hg10 mi
7:00 PM72 °FClear.10 mph69%30.07 "Hg10 mi
6:00 PM75 °FSunny.12 mph57%30.04 "Hg10 mi
5:00 PM81 °FSunny.13 mph48%30.04 "Hg10 mi
4:00 PM82 °FSunny.12 mph42%30.01 "Hg10 mi
3:00 PM84 °FSunny.10 mph40%30.01 "Hg10 mi
Weather by CustomWeather, © 2014

See weather overviewHow to use our weather pages